Year,Month,Day,Hour,Minute,Value (Times are PST for temperature in C)
2010,04,11,00,00,9.50
2010,04,11,00,01,9.50
2010,04,11,00,02,9.50
2010,04,11,00,03,9.50
2010,04,11,00,04,9.50
2010,04,11,00,05,9.50
2010,04,11,00,06,9.50
2010,04,11,00,07,9.50
2010,04,11,00,08,9.50
2010,04,11,00,09,9.50
2010,04,11,00,10,9.50
2010,04,11,00,11,9.60
2010,04,11,00,12,9.60
2010,04,11,00,13,9.60
2010,04,11,00,14,9.60
2010,04,11,00,15,9.60
2010,04,11,00,16,9.60
2010,04,11,00,17,9.60
2010,04,11,00,18,9.60
2010,04,11,00,19,9.60
2010,04,11,00,20,9.60
2010,04,11,00,21,9.60
2010,04,11,00,22,9.60
2010,04,11,00,23,9.60
2010,04,11,00,24,9.60
2010,04,11,00,25,9.60
2010,04,11,00,26,9.60
2010,04,11,00,27,9.60
2010,04,11,00,28,9.60
2010,04,11,00,29,9.60
2010,04,11,00,30,9.50
2010,04,11,00,31,9.50
2010,04,11,00,32,9.50
2010,04,11,00,33,9.50
2010,04,11,00,34,9.50
2010,04,11,00,35,9.50
2010,04,11,00,36,9.50
2010,04,11,00,37,9.50
2010,04,11,00,38,9.50
2010,04,11,00,39,9.50
2010,04,11,00,40,9.50
2010,04,11,00,41,9.50
2010,04,11,00,42,9.50
2010,04,11,00,43,9.40
2010,04,11,00,44,9.50
2010,04,11,00,45,9.50
2010,04,11,00,46,9.50
2010,04,11,00,47,9.50
2010,04,11,00,48,9.40
2010,04,11,00,49,9.40
2010,04,11,00,50,9.40
2010,04,11,00,51,9.40
2010,04,11,00,52,9.40
2010,04,11,00,53,9.40
2010,04,11,00,54,9.40
2010,04,11,00,55,9.40
2010,04,11,00,56,9.40
2010,04,11,00,57,9.40
2010,04,11,00,58,9.40
2010,04,11,00,59,9.30
2010,04,11,01,00,9.30
2010,04,11,01,01,9.30
2010,04,11,01,02,9.30
2010,04,11,01,03,9.30
2010,04,11,01,04,9.30
2010,04,11,01,05,9.30
2010,04,11,01,06,9.30
2010,04,11,01,07,9.30
2010,04,11,01,08,9.30
2010,04,11,01,09,9.30
2010,04,11,01,10,9.40
2010,04,11,01,11,9.40
2010,04,11,01,12,9.40
2010,04,11,01,13,9.40
2010,04,11,01,14,9.40
2010,04,11,01,15,9.40
2010,04,11,01,16,9.40
2010,04,11,01,17,9.40
2010,04,11,01,18,9.40
2010,04,11,01,19,9.40
2010,04,11,01,20,9.40
2010,04,11,01,21,9.40
2010,04,11,01,22,9.40
2010,04,11,01,23,9.30
2010,04,11,01,24,9.30
2010,04,11,01,25,9.30
2010,04,11,01,26,9.30
2010,04,11,01,27,9.30
2010,04,11,01,28,9.30
2010,04,11,01,29,9.30
2010,04,11,01,30,9.30
2010,04,11,01,31,9.30
2010,04,11,01,32,9.30
2010,04,11,01,33,9.30
2010,04,11,01,34,9.30
2010,04,11,01,35,9.30
2010,04,11,01,36,9.30
2010,04,11,01,37,9.40
2010,04,11,01,38,9.40
2010,04,11,01,39,9.40
2010,04,11,01,40,9.40
2010,04,11,01,41,9.40
2010,04,11,01,42,9.40
2010,04,11,01,43,9.40
2010,04,11,01,44,9.40
2010,04,11,01,45,9.40
2010,04,11,01,46,9.40
2010,04,11,01,47,9.40
2010,04,11,01,48,9.40
2010,04,11,01,49,9.40
2010,04,11,01,50,9.40
2010,04,11,01,51,9.40
2010,04,11,01,52,9.40
2010,04,11,01,53,9.30
2010,04,11,01,54,9.30
2010,04,11,01,55,9.30
2010,04,11,01,56,9.30
2010,04,11,01,57,9.30
2010,04,11,01,58,9.30
2010,04,11,01,59,9.30
2010,04,11,02,00,9.30
2010,04,11,02,01,9.30
2010,04,11,02,02,9.30
2010,04,11,02,03,9.20
2010,04,11,02,04,9.20
2010,04,11,02,05,9.20
2010,04,11,02,06,9.20
2010,04,11,02,07,9.20
2010,04,11,02,08,9.20
2010,04,11,02,09,9.20
2010,04,11,02,10,9.20
2010,04,11,02,11,9.20
2010,04,11,02,12,9.20
2010,04,11,02,13,9.20
2010,04,11,02,14,9.20
2010,04,11,02,15,9.20
2010,04,11,02,16,9.20
2010,04,11,02,17,9.20
2010,04,11,02,18,9.20
2010,04,11,02,19,9.20
2010,04,11,02,20,9.20
2010,04,11,02,21,9.20
2010,04,11,02,22,9.20
2010,04,11,02,23,9.20
2010,04,11,02,24,9.20
2010,04,11,02,25,9.20
2010,04,11,02,26,9.20
2010,04,11,02,27,9.20
2010,04,11,02,28,9.20
2010,04,11,02,29,9.20
2010,04,11,02,30,9.20
2010,04,11,02,31,9.20
2010,04,11,02,32,9.20
2010,04,11,02,33,9.20
2010,04,11,02,34,9.20
2010,04,11,02,35,9.20
2010,04,11,02,36,9.20
2010,04,11,02,37,9.20
2010,04,11,02,38,9.20
2010,04,11,02,39,9.20
2010,04,11,02,40,9.20
2010,04,11,02,41,9.20
2010,04,11,02,42,9.20
2010,04,11,02,43,9.20
2010,04,11,02,44,9.20
2010,04,11,02,45,9.20
2010,04,11,02,46,9.20
2010,04,11,02,47,9.10
2010,04,11,02,48,9.10
2010,04,11,02,49,9.10
2010,04,11,02,50,9.10
2010,04,11,02,51,9.10
2010,04,11,02,52,9.10
2010,04,11,02,53,9.10
2010,04,11,02,54,9.00
2010,04,11,02,55,9.00
2010,04,11,02,56,9.00
2010,04,11,02,57,9.00
2010,04,11,02,58,9.00
2010,04,11,02,59,9.00
2010,04,11,03,00,9.00
2010,04,11,03,01,9.00
2010,04,11,03,02,9.00
2010,04,11,03,03,9.00
2010,04,11,03,04,9.00
2010,04,11,03,05,9.00
2010,04,11,03,06,9.00
2010,04,11,03,07,9.00
2010,04,11,03,08,9.00
2010,04,11,03,09,8.90
2010,04,11,03,10,8.90
2010,04,11,03,11,8.90
2010,04,11,03,12,8.90
2010,04,11,03,13,8.90
2010,04,11,03,14,8.90
2010,04,11,03,15,8.80
2010,04,11,03,16,8.80
2010,04,11,03,17,8.80
2010,04,11,03,18,8.80
2010,04,11,03,19,8.80
2010,04,11,03,20,8.80
2010,04,11,03,21,8.80
2010,04,11,03,22,8.80
2010,04,11,03,23,8.80
2010,04,11,03,24,8.70
2010,04,11,03,25,8.70
2010,04,11,03,26,8.70
2010,04,11,03,27,8.70
2010,04,11,03,28,8.70
2010,04,11,03,29,8.70
2010,04,11,03,30,8.70
2010,04,11,03,31,8.70
2010,04,11,03,32,8.70
2010,04,11,03,33,8.70
2010,04,11,03,34,8.70
2010,04,11,10,06,10.10
2010,04,11,10,07,10.20
2010,04,11,10,08,10.20
2010,04,11,10,09,10.20
2010,04,11,10,10,10.20
2010,04,11,10,11,10.20
2010,04,11,10,12,10.20
2010,04,11,10,13,10.20
2010,04,11,10,14,10.20
2010,04,11,10,15,10.20
2010,04,11,10,16,10.20
2010,04,11,10,17,10.10
2010,04,11,10,18,10.10
2010,04,11,10,19,10.10
2010,04,11,10,20,10.10
2010,04,11,10,21,10.10
2010,04,11,10,22,10.10
2010,04,11,10,23,10.10
2010,04,11,10,24,10.10
2010,04,11,10,25,10.10
2010,04,11,10,26,10.10
2010,04,11,10,27,10.10
2010,04,11,10,28,10.10
2010,04,11,10,29,10.10
2010,04,11,10,30,10.10
2010,04,11,10,31,10.10
2010,04,11,10,32,10.10
2010,04,11,10,33,10.10
2010,04,11,10,34,10.10
2010,04,11,10,35,10.10
2010,04,11,10,36,10.10
2010,04,11,10,37,10.10
2010,04,11,10,38,10.10
2010,04,11,10,39,10.10
2010,04,11,10,40,10.10
2010,04,11,10,41,10.10
2010,04,11,10,42,10.10
2010,04,11,10,43,10.10
2010,04,11,10,44,10.10
2010,04,11,10,45,10.10
2010,04,11,10,46,10.10
2010,04,11,10,47,10.10
2010,04,11,10,48,10.20
2010,04,11,10,49,10.20
2010,04,11,10,50,10.20
2010,04,11,10,51,10.30
2010,04,11,10,52,10.30
2010,04,11,10,53,10.40
2010,04,11,10,54,10.40
2010,04,11,10,55,10.40
2010,04,11,10,56,10.40
2010,04,11,10,57,10.40
2010,04,11,10,58,10.50
2010,04,11,10,59,10.50
2010,04,11,11,00,10.60
2010,04,11,11,01,10.40
2010,04,11,11,02,10.40
2010,04,11,11,03,10.40
2010,04,11,11,04,10.50
2010,04,11,11,05,10.60
2010,04,11,11,06,10.60
2010,04,11,11,07,10.60
2010,04,11,11,08,10.60
2010,04,11,11,09,10.60
2010,04,11,11,10,10.60
2010,04,11,11,11,10.60
2010,04,11,11,12,10.70
2010,04,11,11,13,10.70
2010,04,11,11,14,10.60
2010,04,11,11,15,10.60
2010,04,11,11,16,10.70
2010,04,11,11,17,10.70
2010,04,11,11,18,10.70
2010,04,11,11,19,10.80
2010,04,11,11,20,10.90
2010,04,11,11,21,10.90
2010,04,11,11,22,10.90
2010,04,11,11,23,10.90
2010,04,11,11,24,10.90
2010,04,11,11,25,10.90
2010,04,11,11,26,11.00
2010,04,11,11,27,11.10
2010,04,11,11,28,11.00
2010,04,11,11,29,10.90
2010,04,11,11,30,11.00
2010,04,11,11,31,11.00
2010,04,11,11,32,10.90
2010,04,11,11,33,10.90
2010,04,11,11,34,10.90
2010,04,11,11,35,11.00
2010,04,11,11,36,11.10
2010,04,11,11,37,11.10
2010,04,11,11,38,11.20
2010,04,11,11,39,11.20
2010,04,11,11,40,11.30
2010,04,11,11,41,11.40
2010,04,11,11,42,11.40
2010,04,11,11,43,11.40
2010,04,11,11,44,11.40
2010,04,11,11,45,11.30
2010,04,11,11,46,11.30
2010,04,11,11,47,11.40
2010,04,11,11,48,11.40
2010,04,11,11,49,11.40
2010,04,11,11,50,11.50
2010,04,11,11,51,11.60
2010,04,11,11,52,11.60
2010,04,11,11,53,11.60
2010,04,11,11,54,11.70
2010,04,11,11,55,11.80
2010,04,11,11,56,11.80
2010,04,11,11,57,11.80
2010,04,11,11,58,11.80
2010,04,11,11,59,11.70
2010,04,11,12,00,11.70
2010,04,11,12,01,11.70
2010,04,11,12,02,11.80
2010,04,11,12,03,11.80
2010,04,11,12,04,11.70
2010,04,11,12,05,11.60
2010,04,11,12,06,11.60
2010,04,11,12,07,11.60
2010,04,11,12,08,11.70
2010,04,11,12,09,11.70
2010,04,11,12,10,11.70
2010,04,11,12,11,11.80
2010,04,11,12,12,11.80
2010,04,11,12,13,11.80
2010,04,11,12,14,11.80
2010,04,11,12,15,11.80
2010,04,11,12,16,11.80
2010,04,11,12,17,11.80
2010,04,11,12,18,11.80
2010,04,11,12,19,11.80
2010,04,11,12,20,11.80
2010,04,11,12,21,11.90
2010,04,11,12,22,11.90
2010,04,11,12,23,11.90
2010,04,11,12,24,11.90
2010,04,11,12,25,11.90
2010,04,11,12,26,11.90
2010,04,11,12,27,11.80
2010,04,11,12,28,11.80
2010,04,11,12,29,11.80
2010,04,11,12,30,11.70
2010,04,11,12,31,11.70
2010,04,11,12,32,11.70
2010,04,11,12,33,11.70
2010,04,11,12,34,11.80
2010,04,11,12,35,11.80
2010,04,11,12,36,11.80
2010,04,11,12,37,11.80
2010,04,11,12,38,11.80
2010,04,11,12,39,11.80
2010,04,11,12,40,11.80
2010,04,11,12,41,11.80
2010,04,11,12,42,11.80
2010,04,11,12,43,11.80
2010,04,11,12,44,11.90
2010,04,11,12,45,12.00
2010,04,11,12,46,12.00
2010,04,11,12,47,12.10
2010,04,11,12,48,12.10
2010,04,11,12,49,12.10
2010,04,11,12,50,12.20
2010,04,11,12,51,12.30
2010,04,11,12,52,12.40
2010,04,11,12,53,12.50
2010,04,11,12,54,12.50
2010,04,11,12,55,12.50
2010,04,11,12,56,12.50
2010,04,11,12,57,12.40
2010,04,11,12,58,12.30
2010,04,11,12,59,12.30
2010,04,11,13,00,12.30
2010,04,11,13,01,12.30
2010,04,11,13,02,12.30
2010,04,11,13,03,12.30
2010,04,11,13,04,12.40
2010,04,11,13,05,12.40
2010,04,11,13,06,12.50
2010,04,11,13,07,12.60
2010,04,11,13,08,12.60
2010,04,11,13,09,12.50
2010,04,11,13,10,12.60
2010,04,11,13,11,12.60
2010,04,11,13,12,12.70
2010,04,11,13,13,12.80
2010,04,11,13,14,12.90
2010,04,11,13,15,12.90
2010,04,11,13,16,12.90
2010,04,11,13,17,12.90
2010,04,11,13,18,12.80
2010,04,11,13,19,12.80
2010,04,11,13,20,12.80
2010,04,11,13,21,12.80
2010,04,11,13,22,12.90
2010,04,11,13,23,12.90
2010,04,11,13,24,12.90
2010,04,11,13,25,12.90
2010,04,11,13,26,12.90
2010,04,11,13,27,12.80
2010,04,11,13,28,12.80
2010,04,11,13,29,12.90
2010,04,11,13,30,12.90
2010,04,11,13,31,12.90
2010,04,11,13,32,12.80
2010,04,11,13,33,12.80
2010,04,11,13,34,12.70
2010,04,11,13,35,12.70
2010,04,11,13,36,12.70
2010,04,11,13,37,12.70
2010,04,11,13,38,12.80
2010,04,11,13,39,12.80
2010,04,11,13,40,12.80
2010,04,11,13,41,13.00
2010,04,11,13,42,13.10
2010,04,11,13,43,13.20
2010,04,11,13,44,13.20
2010,04,11,13,45,13.20
2010,04,11,13,46,13.20
2010,04,11,13,47,13.10
2010,04,11,13,48,13.10
2010,04,11,13,49,13.20
2010,04,11,13,50,13.20
2010,04,11,13,51,13.20
2010,04,11,13,52,13.30
2010,04,11,13,53,13.30
2010,04,11,13,54,13.30
2010,04,11,13,55,13.40
2010,04,11,13,56,13.40
2010,04,11,13,57,13.50
2010,04,11,13,58,13.60
2010,04,11,13,59,13.60
2010,04,11,14,00,13.60
2010,04,11,14,01,13.50
2010,04,11,14,02,13.50
2010,04,11,14,03,13.40
2010,04,11,14,04,13.30
2010,04,11,14,05,13.30
2010,04,11,14,06,13.40
2010,04,11,14,07,13.50
2010,04,11,14,08,13.60
2010,04,11,14,09,13.60
2010,04,11,14,10,13.70
2010,04,11,14,11,13.70
2010,04,11,14,12,13.80
2010,04,11,14,13,13.80
2010,04,11,14,14,13.90
2010,04,11,14,15,13.90
2010,04,11,14,16,13.80
2010,04,11,14,17,13.70
2010,04,11,14,18,13.70
2010,04,11,14,19,13.60
2010,04,11,14,20,13.50
2010,04,11,14,21,13.50
2010,04,11,14,22,13.40
2010,04,11,14,23,13.40
2010,04,11,14,24,13.40
2010,04,11,14,25,13.40
2010,04,11,14,26,13.40
2010,04,11,14,27,13.50
2010,04,11,14,28,13.60
2010,04,11,14,29,13.60
2010,04,11,14,30,13.50
2010,04,11,14,31,13.50
2010,04,11,14,32,13.50
2010,04,11,14,33,13.60
2010,04,11,14,34,13.70
2010,04,11,14,35,13.70
2010,04,11,14,36,13.80
2010,04,11,14,37,13.90
2010,04,11,14,38,13.90
2010,04,11,14,39,14.00
2010,04,11,14,40,14.10
2010,04,11,14,41,14.10
2010,04,11,14,42,14.20
2010,04,11,14,43,14.10
2010,04,11,14,44,14.00
2010,04,11,14,45,14.00
2010,04,11,14,46,14.00
2010,04,11,14,47,14.00
2010,04,11,14,48,14.00
2010,04,11,14,49,13.90
2010,04,11,14,50,13.90
2010,04,11,14,51,13.80
2010,04,11,14,52,13.70
2010,04,11,14,53,13.70
2010,04,11,14,54,13.60
2010,04,11,14,55,13.60
2010,04,11,14,56,13.60
2010,04,11,14,57,13.70
2010,04,11,14,58,13.70
2010,04,11,14,59,13.70
2010,04,11,15,00,13.70
2010,04,11,15,01,13.60
2010,04,11,15,02,13.60
2010,04,11,15,03,13.60
2010,04,11,15,04,13.60
2010,04,11,15,05,13.50
2010,04,11,15,06,13.50
2010,04,11,15,07,13.40
2010,04,11,15,08,13.30
2010,04,11,15,09,13.30
2010,04,11,15,10,13.30
2010,04,11,15,11,13.30
2010,04,11,15,12,13.30
2010,04,11,15,13,13.30
2010,04,11,15,14,13.30
2010,04,11,15,15,13.30
2010,04,11,15,16,13.20
2010,04,11,15,17,13.20
2010,04,11,15,18,13.20
2010,04,11,15,19,13.20
2010,04,11,15,20,13.30
2010,04,11,15,21,13.30
2010,04,11,15,22,13.40
2010,04,11,15,23,13.40
2010,04,11,15,24,13.50
2010,04,11,15,25,13.50
2010,04,11,15,26,13.60
2010,04,11,15,27,13.70
2010,04,11,15,28,13.70
2010,04,11,15,29,13.70
2010,04,11,15,30,13.70
2010,04,11,15,31,13.80
2010,04,11,15,32,13.80
2010,04,11,15,33,13.80
2010,04,11,15,34,13.80
2010,04,11,15,35,13.80
2010,04,11,15,36,13.80
2010,04,11,15,37,13.80
2010,04,11,15,38,13.70
2010,04,11,15,39,13.80
2010,04,11,15,40,13.80
2010,04,11,15,41,13.80
2010,04,11,15,42,13.80
2010,04,11,15,43,13.80
2010,04,11,15,44,13.80
2010,04,11,15,45,13.90
2010,04,11,15,46,14.00
2010,04,11,15,47,14.00
2010,04,11,15,48,14.10
2010,04,11,15,49,14.10
2010,04,11,15,50,14.20
2010,04,11,15,51,14.20
2010,04,11,15,52,14.20
2010,04,11,15,53,14.20
2010,04,11,15,54,14.20
2010,04,11,15,55,14.20
2010,04,11,15,56,14.20
2010,04,11,15,57,14.20
2010,04,11,15,58,14.20
2010,04,11,15,59,14.10
2010,04,11,16,00,14.10
2010,04,11,16,01,14.10
2010,04,11,16,02,14.10
2010,04,11,16,03,14.20
2010,04,11,16,04,14.20
2010,04,11,16,05,14.10
2010,04,11,16,06,14.10
2010,04,11,16,07,14.00
2010,04,11,16,08,14.00
2010,04,11,16,09,14.10
2010,04,11,16,10,14.20
2010,04,11,16,11,14.20
2010,04,11,16,12,14.20
2010,04,11,16,13,14.20
2010,04,11,16,14,14.30
2010,04,11,16,15,14.50
2010,04,11,16,16,14.60
2010,04,11,16,17,14.60
2010,04,11,16,18,14.70
2010,04,11,16,19,14.70
2010,04,11,16,20,14.80
2010,04,11,16,21,14.80
2010,04,11,16,22,14.70
2010,04,11,16,23,14.60
2010,04,11,16,24,14.60
2010,04,11,16,25,14.60
2010,04,11,16,26,14.60
2010,04,11,16,27,14.60
2010,04,11,16,28,14.60
2010,04,11,16,29,14.60
2010,04,11,16,30,14.60
2010,04,11,16,31,14.50
2010,04,11,16,32,14.50
2010,04,11,16,33,14.50
2010,04,11,16,34,14.50
2010,04,11,16,35,14.50
2010,04,11,16,36,14.50
2010,04,11,16,37,14.50
2010,04,11,16,38,14.60
2010,04,11,16,39,14.60
2010,04,11,16,40,14.70
2010,04,11,16,41,14.70
2010,04,11,16,42,14.70
2010,04,11,16,43,14.70
2010,04,11,16,44,14.70
2010,04,11,16,45,14.80
2010,04,11,16,46,14.80
2010,04,11,16,47,14.70
2010,04,11,16,48,14.70
2010,04,11,16,49,14.60
2010,04,11,16,50,14.60
2010,04,11,16,51,14.60
2010,04,11,16,52,14.50
2010,04,11,16,53,14.50
2010,04,11,16,54,14.50
2010,04,11,16,55,14.50
2010,04,11,16,56,14.50
2010,04,11,16,57,14.60
2010,04,11,16,58,14.60
2010,04,11,16,59,14.60
2010,04,11,17,00,14.50
2010,04,11,17,01,14.50
2010,04,11,17,02,14.50
2010,04,11,17,03,14.50
2010,04,11,17,04,14.50
2010,04,11,17,05,14.50
2010,04,11,17,06,14.40
2010,04,11,17,07,14.40
2010,04,11,17,08,14.30
2010,04,11,17,09,14.30
2010,04,11,17,10,14.30
2010,04,11,17,11,14.30
2010,04,11,17,12,14.20
2010,04,11,17,13,14.20
2010,04,11,17,14,14.20
2010,04,11,17,15,14.20
2010,04,11,17,16,14.20
2010,04,11,17,17,14.20
2010,04,11,17,18,14.20
2010,04,11,17,19,14.20
2010,04,11,17,20,14.20
2010,04,11,17,21,14.10
2010,04,11,17,22,14.10
2010,04,11,17,23,14.10
2010,04,11,17,24,14.10
2010,04,11,17,25,14.10
2010,04,11,17,26,14.00
2010,04,11,17,27,14.00
2010,04,11,17,28,14.00
2010,04,11,17,29,14.00
2010,04,11,17,30,13.90
2010,04,11,17,31,13.90
2010,04,11,17,32,13.90
2010,04,11,17,33,13.90
2010,04,11,17,34,13.90
2010,04,11,17,35,13.90
2010,04,11,17,36,13.90
2010,04,11,17,37,13.90
2010,04,11,17,38,13.90
2010,04,11,17,39,13.90
2010,04,11,17,40,13.80
2010,04,11,17,41,13.80
2010,04,11,17,42,13.80
2010,04,11,17,43,13.70
2010,04,11,17,44,13.70
2010,04,11,17,45,13.70
2010,04,11,17,46,13.70
2010,04,11,17,47,13.70
2010,04,11,17,48,13.70
2010,04,11,17,49,13.70
2010,04,11,17,50,13.70
2010,04,11,17,51,13.70
2010,04,11,17,52,13.70
2010,04,11,17,53,13.70
2010,04,11,17,54,13.70
2010,04,11,17,55,13.70
2010,04,11,17,56,13.70
2010,04,11,17,57,13.70
2010,04,11,17,58,13.70
2010,04,11,17,59,13.70
2010,04,11,18,00,13.70
2010,04,11,18,01,13.70
2010,04,11,18,02,13.70
2010,04,11,18,03,13.70
2010,04,11,18,04,13.70
2010,04,11,18,05,13.70
2010,04,11,18,06,13.70
2010,04,11,18,07,13.70
2010,04,11,18,08,13.70
2010,04,11,18,09,13.70
2010,04,11,18,10,13.70
2010,04,11,18,11,13.70
2010,04,11,18,12,13.70
2010,04,11,18,13,13.70
2010,04,11,18,14,13.70
2010,04,11,18,15,13.70
2010,04,11,18,16,13.60
2010,04,11,18,17,13.60
2010,04,11,18,18,13.70
2010,04,11,18,19,13.70
2010,04,11,18,20,13.70
2010,04,11,18,21,13.70
2010,04,11,18,22,13.70
2010,04,11,18,23,13.70
2010,04,11,18,24,13.70
2010,04,11,18,25,13.70
2010,04,11,18,26,13.70
2010,04,11,18,27,13.70
2010,04,11,18,28,13.70
2010,04,11,18,29,13.70
2010,04,11,18,30,13.70
2010,04,11,18,31,13.70
2010,04,11,18,32,13.70
2010,04,11,18,33,13.70
2010,04,11,18,34,13.70
2010,04,11,18,35,13.70
2010,04,11,18,36,13.70
2010,04,11,18,37,13.70
2010,04,11,18,38,13.80
2010,04,11,18,39,13.80
2010,04,11,18,40,13.80
2010,04,11,18,41,13.70
2010,04,11,18,42,13.70
2010,04,11,18,43,13.70
2010,04,11,18,44,13.70
2010,04,11,18,45,13.70
2010,04,11,18,46,13.70
2010,04,11,18,47,13.70
2010,04,11,18,48,13.70
2010,04,11,18,49,13.70
2010,04,11,18,50,13.70
2010,04,11,18,51,13.70
2010,04,11,18,52,13.70
2010,04,11,18,53,13.70
2010,04,11,18,54,13.60
2010,04,11,18,55,13.60
2010,04,11,18,56,13.60
2010,04,11,18,57,13.60
2010,04,11,18,58,13.60
2010,04,11,18,59,13.60
2010,04,11,19,00,13.60
2010,04,11,19,01,13.60
2010,04,11,19,02,13.60
2010,04,11,19,03,13.60
2010,04,11,19,04,13.60
2010,04,11,19,05,13.60
2010,04,11,19,06,13.60
2010,04,11,19,07,13.60
2010,04,11,19,08,13.60
2010,04,11,19,09,13.60
2010,04,11,19,10,13.50
2010,04,11,19,11,13.50
2010,04,11,19,12,13.50
2010,04,11,19,13,13.50
2010,04,11,19,14,13.50
2010,04,11,19,15,13.50
2010,04,11,19,16,13.40
2010,04,11,19,17,13.40
2010,04,11,19,18,13.40
2010,04,11,19,19,13.40
2010,04,11,19,20,13.30
2010,04,11,19,21,13.30
2010,04,11,19,22,13.30
2010,04,11,19,23,13.30
2010,04,11,19,24,13.30
2010,04,11,19,25,13.30
2010,04,11,19,26,13.30
2010,04,11,19,27,13.30
2010,04,11,19,28,13.30
2010,04,11,19,29,13.30
2010,04,11,19,30,13.30
2010,04,11,19,31,13.30
2010,04,11,19,32,13.30
2010,04,11,19,33,13.30
2010,04,11,19,34,13.30
2010,04,11,19,35,13.30
2010,04,11,19,36,13.20
2010,04,11,19,37,13.20
2010,04,11,19,38,13.20
2010,04,11,19,39,13.20
2010,04,11,19,40,13.10
2010,04,11,19,41,13.10
2010,04,11,19,42,13.10
2010,04,11,19,43,13.10
2010,04,11,19,44,13.00
2010,04,11,19,45,13.00
2010,04,11,19,46,13.00
2010,04,11,19,47,13.00
2010,04,11,19,48,13.00
2010,04,11,19,49,12.90
2010,04,11,19,50,12.90
2010,04,11,19,51,12.90
2010,04,11,19,52,12.80
2010,04,11,19,53,12.80
2010,04,11,19,54,12.80
2010,04,11,19,55,12.80
2010,04,11,19,56,12.80
2010,04,11,19,57,12.80
2010,04,11,19,58,12.80
2010,04,11,19,59,12.80
2010,04,11,20,00,12.80
2010,04,11,20,01,12.80
2010,04,11,20,02,12.70
2010,04,11,20,03,12.70
2010,04,11,20,04,12.70
2010,04,11,20,05,12.70
2010,04,11,20,06,12.60
2010,04,11,20,07,12.60
2010,04,11,20,08,12.60
2010,04,11,20,09,12.60
2010,04,11,20,10,12.60
2010,04,11,20,11,12.60
2010,04,11,20,12,12.60
2010,04,11,20,13,12.50
2010,04,11,20,14,12.50
2010,04,11,20,15,12.50
2010,04,11,20,16,12.50
2010,04,11,20,17,12.50
2010,04,11,20,18,12.50
2010,04,11,20,19,12.50
2010,04,11,20,20,12.50
2010,04,11,20,21,12.40
2010,04,11,20,22,12.40
2010,04,11,20,23,12.40
2010,04,11,20,24,12.40
2010,04,11,20,25,12.40
2010,04,11,20,26,12.40
2010,04,11,20,27,12.40
2010,04,11,20,28,12.30
2010,04,11,20,29,12.30
2010,04,11,20,30,12.30
2010,04,11,20,31,12.30
2010,04,11,20,32,12.30
2010,04,11,20,33,12.30
2010,04,11,20,34,12.30
2010,04,11,20,35,12.30
2010,04,11,20,36,12.30
2010,04,11,20,37,12.30
2010,04,11,20,38,12.30
2010,04,11,20,39,12.30
2010,04,11,20,40,12.30
2010,04,11,20,41,12.30
2010,04,11,20,42,12.30
2010,04,11,20,43,12.30
2010,04,11,20,44,12.30
2010,04,11,20,45,12.30
2010,04,11,20,46,12.30
2010,04,11,20,47,12.30
2010,04,11,20,48,12.30
2010,04,11,20,49,12.30
2010,04,11,20,50,12.30
2010,04,11,20,51,12.30
2010,04,11,20,52,12.30
2010,04,11,20,53,12.30
2010,04,11,20,54,12.30
2010,04,11,20,55,12.30
2010,04,11,20,56,12.30
2010,04,11,20,57,12.30
2010,04,11,20,58,12.20
2010,04,11,20,59,12.20
2010,04,11,21,00,12.20
2010,04,11,21,01,12.20
2010,04,11,21,02,12.20
2010,04,11,21,03,12.20
2010,04,11,21,04,12.20
2010,04,11,21,05,12.20
2010,04,11,21,06,12.20
2010,04,11,21,07,12.20
2010,04,11,21,08,12.20
2010,04,11,21,09,12.20
2010,04,11,21,10,12.20
2010,04,11,21,11,12.20
2010,04,11,21,12,12.20
2010,04,11,21,13,12.20
2010,04,11,21,14,12.20
2010,04,11,21,15,12.20
2010,04,11,21,16,12.20
2010,04,11,21,17,12.10
2010,04,11,21,18,12.10
2010,04,11,21,19,12.10
2010,04,11,21,20,12.10
2010,04,11,21,21,12.10
2010,04,11,21,22,12.00
2010,04,11,21,23,12.00
2010,04,11,21,24,12.00
2010,04,11,21,25,12.00
2010,04,11,21,26,12.00
2010,04,11,21,27,11.90
2010,04,11,21,28,11.90
2010,04,11,21,29,11.90
2010,04,11,21,30,11.90
2010,04,11,21,31,11.90
2010,04,11,21,32,11.90
2010,04,11,21,33,11.80
2010,04,11,21,34,11.80
2010,04,11,21,35,11.80
2010,04,11,21,36,11.80
2010,04,11,21,37,11.80
2010,04,11,21,38,11.80
2010,04,11,21,39,11.80
2010,04,11,21,40,11.80
2010,04,11,21,41,11.80
2010,04,11,21,42,11.80
2010,04,11,21,43,11.80
2010,04,11,21,44,11.80
2010,04,11,21,45,11.70
2010,04,11,21,46,11.70
2010,04,11,21,47,11.70
2010,04,11,21,48,11.70
2010,04,11,21,49,11.70
2010,04,11,21,50,11.70
2010,04,11,21,51,11.70
2010,04,11,21,52,11.70
2010,04,11,21,53,11.70
2010,04,11,21,54,11.70
2010,04,11,21,55,11.70
2010,04,11,21,56,11.70
2010,04,11,21,57,11.70
2010,04,11,21,58,11.70
2010,04,11,21,59,11.70
2010,04,11,22,00,11.60
2010,04,11,22,01,11.60
2010,04,11,22,02,11.60
2010,04,11,22,03,11.60
2010,04,11,22,04,11.60
2010,04,11,22,05,11.60
2010,04,11,22,06,11.60
2010,04,11,22,07,11.60
2010,04,11,22,08,11.60
2010,04,11,22,09,11.60
2010,04,11,22,10,11.60
2010,04,11,22,11,11.60
2010,04,11,22,12,11.60
2010,04,11,22,13,11.60
2010,04,11,22,14,11.60
2010,04,11,22,15,11.60
2010,04,11,22,16,11.50
2010,04,11,22,17,11.40
2010,04,11,22,18,11.40
2010,04,11,22,19,11.40
2010,04,11,22,20,11.40
2010,04,11,22,21,11.40
2010,04,11,22,22,11.40
2010,04,11,22,23,11.40
2010,04,11,22,24,11.40
2010,04,11,22,25,11.40
2010,04,11,22,26,11.40
2010,04,11,22,27,11.40
2010,04,11,22,28,11.40
2010,04,11,22,29,11.40
2010,04,11,22,30,11.40
2010,04,11,22,31,11.40
2010,04,11,22,32,11.40
2010,04,11,22,33,11.40
2010,04,11,22,34,11.40
2010,04,11,22,35,11.40
2010,04,11,22,36,11.40
2010,04,11,22,37,11.40
2010,04,11,22,38,11.40
2010,04,11,22,39,11.40
2010,04,11,22,40,11.40
2010,04,11,22,41,11.40
2010,04,11,22,42,11.40
2010,04,11,22,43,11.40
2010,04,11,22,44,11.40
2010,04,11,22,45,11.40
2010,04,11,22,46,11.40
2010,04,11,22,47,11.40
2010,04,11,22,48,11.40
2010,04,11,22,49,11.40
2010,04,11,22,50,11.40
2010,04,11,22,51,11.40
2010,04,11,22,52,11.50
2010,04,11,22,53,11.60
2010,04,11,22,54,11.60
2010,04,11,22,55,11.60
2010,04,11,22,56,11.60
2010,04,11,22,57,11.60
2010,04,11,22,58,11.60
2010,04,11,22,59,11.60
2010,04,11,23,00,11.60
2010,04,11,23,01,11.70
2010,04,11,23,02,11.70
2010,04,11,23,03,11.70
2010,04,11,23,04,11.70
2010,04,11,23,05,11.70
2010,04,11,23,06,11.70
2010,04,11,23,07,11.70
2010,04,11,23,08,11.70
2010,04,11,23,09,11.70
2010,04,11,23,10,11.70
2010,04,11,23,11,11.70
2010,04,11,23,12,11.70
2010,04,11,23,13,11.70
2010,04,11,23,14,11.70
2010,04,11,23,15,11.70
2010,04,11,23,16,11.70
2010,04,11,23,17,11.70
2010,04,11,23,18,11.60
2010,04,11,23,19,11.60
2010,04,11,23,20,11.60
2010,04,11,23,21,11.60
2010,04,11,23,22,11.70
2010,04,11,23,23,11.70
2010,04,11,23,24,11.70
2010,04,11,23,25,11.70
2010,04,11,23,26,11.70
2010,04,11,23,27,11.80
2010,04,11,23,28,11.80
2010,04,11,23,29,11.80
2010,04,11,23,30,11.80
2010,04,11,23,31,11.80
2010,04,11,23,32,11.80
2010,04,11,23,33,11.80
2010,04,11,23,34,11.80
2010,04,11,23,35,11.80
2010,04,11,23,36,11.80
2010,04,11,23,37,11.80
2010,04,11,23,38,11.80
2010,04,11,23,39,11.80
2010,04,11,23,40,11.80
2010,04,11,23,41,11.80
2010,04,11,23,42,11.70
2010,04,11,23,43,11.70
2010,04,11,23,44,11.70
2010,04,11,23,45,11.70
2010,04,11,23,46,11.70
2010,04,11,23,47,11.70
2010,04,11,23,48,11.60
2010,04,11,23,49,11.70
2010,04,11,23,50,11.70
2010,04,11,23,51,11.70
2010,04,11,23,52,11.70
2010,04,11,23,53,11.70
2010,04,11,23,54,11.70
2010,04,11,23,55,11.70
2010,04,11,23,56,11.60
2010,04,11,23,57,11.60
2010,04,11,23,58,11.70
2010,04,11,23,59,11.70
